This is the latest recevied weather packets stored in our database for station/object W4SPD. If no packets are shown the sender has not sent any weather packets the latest 10 day(s).
| Time | Temp. | Humidity | Pressure | Rain* | Wind** | Luminosity | Snow |
|---|---|---|---|---|---|---|---|
| 1778005125 | 25° C | 40% | - | 0 mm | - | - | - |
| 1778004823 | 25° C | 41% | - | 0 mm | - | - | - |
| 1778004519 | 25° C | 41% | - | 0 mm | - | - | - |
| 1778004215 | 25° C | 41% | - | 0 mm | - | - | - |
| 1778003912 | 24.44° C | 43% | - | 0 mm | - | - | - |
| 1778003608 | 25° C | 41% | - | 0 mm | - | - | - |
| 1778003305 | 24.44° C | 42% | - | 0 mm | - | - | - |
| 1778003003 | 24.44° C | 45% | - | 0 mm | - | - | - |
| 1778002698 | 24.44° C | 44% | - | 0 mm | - | - | - |
| 1778002395 | 25° C | 46% | - | 0 mm | - | - | - |
| 1778002092 | 24.44° C | 43% | - | 0 mm | - | - | - |
| 1778001790 | 24.44° C | 43% | - | 0 mm | - | - | - |
| 1778001484 | 24.44° C | 42% | - | 0 mm | - | - | - |
| 1778001181 | 24.44° C | 41% | - | 0 mm | - | - | - |
| 1778000878 | 24.44° C | 42% | - | 0 mm | - | - | - |
| 1778000575 | 23.89° C | 44% | - | 0 mm | - | - | - |
| 1777999966 | 24.44° C | 45% | - | 0 mm | - | - | - |
| 1777999662 | 23.89° C | 43% | - | 0 mm | - | - | - |
| 1777999360 | 24.44° C | 45% | - | 0 mm | - | - | - |
| 1777999058 | 24.44° C | 45% | - | 0 mm | - | - | - |
| 1777998756 | 24.44° C | 46% | - | 0 mm | - | - | - |
| 1777998453 | 23.89° C | 44% | - | 0 mm | - | - | - |
| 1777998150 | 23.89° C | 46% | - | 0 mm | - | - | - |
| 1777997847 | 23.33° C | 44% | - | 0 mm | - | - | - |
| 1777997545 | 23.89° C | 41% | - | 0 mm | - | - | - |
* Rain latest hour (hover to see other rain measurements)
** Current wind speed in m/s (hover to see current wind gust speed)